This demonstration page uses our WeatherBlox Daily Observations layout. Learn more.

Left ArrowRight Arrow

47.50024, -111.30081

Hourly Observations for January 22, 2020

Temp ( °F °C ) Dew Point ( °F °C ) Humidity (%) Winds ( mph kmh ) Pressure ( in mb ) Visibility ( mi km ) Precip ( " mm )
12:53 am 00:53 Cloudy with Light Rain 37 2.8 31 -0.6 79 79 SW 20 31 29.76 1008 10 16 0.00 0.00
1:53 am 01:53 Cloudy 36 2.2 30 -1.1 79 79 SW 13 20 29.79 1009 10 16 0.00 0.00
2:53 am 02:53 Clear 35 1.7 25 -3.9 67 67 SW 14 22 29.80 1009 10 16 0.00 0.00
3:53 am 03:53 Clear 32 0 22 -5.6 66 66 SW 14 22 29.84 1011 10 16 0.00 0.00
4:53 am 04:53 Clear 32 0 21 -6.1 64 64 SW 14 22 29.86 1011 10 16 0.00 0.00
5:53 am 05:53 Clear 32 0 21 -6.1 64 64 SSW 16 26 29.88 1012 10 16 0.00 0.00
6:53 am 06:53 Clear 33 0.6 20 -6.7 58 58 SW 16 26 29.88 1012 10 16 0.00 0.00
7:53 am 07:53 Clear 33 0.6 19 -7.2 56 56 SW 13 20 29.89 1012 10 16 0.00 0.00
8:53 am 08:53 Sunny 33 0.6 19 -7.2 56 56 SW 13 20 29.93 1014 10 16 0.00 0.00
9:53 am 09:53 Sunny 38 3.3 21 -6.1 51 51 SW 20 31 29.93 1014 10 16 0.00 0.00
10:53 am 10:53 Sunny 40 4.4 20 -6.7 45 45 SW 22 35 29.93 1014 10 16 0.00 0.00
11:53 am 11:53 Sunny 43 6.1 19 -7.2 38 38 SW 22 35 29.92 1013 10 16 0.00 0.00
12:53 pm 12:53 Sunny 45 7.2 18 -7.8 34 34 SW 25 41 29.92 1013 10 16 0.00 0.00
1:53 pm 13:53 Sunny 45 7.2 17 -8.3 33 33 SW 22 35 29.93 1014 10 16 0.00 0.00
2:53 pm 14:53 Sunny 46 7.8 14 -10 27 27 W 25 41 29.95 1014 10 16 0.00 0.00
3:53 pm 15:53 Sunny 44 6.7 14 -10 30 30 W 24 39 30.00 1016 10 16 0.00 0.00
4:53 pm 16:53 Sunny 38 3.3 13 -10.6 36 36 W 15 24 30.04 1017 10 16 0.00 0.00
5:53 pm 17:53 Clear 30 -1.1 13 -10.6 49 49 WSW 13 20 30.09 1019 10 16 0.00 0.00
6:53 pm 18:53 Clear 30 -1.1 16 -8.9 56 56 SW 12 19 30.11 1020 10 16 0.00 0.00
7:53 pm 19:53 Clear 28 -2.2 17 -8.3 63 63 WSW 10 17 30.12 1020 10 16 0.00 0.00
8:53 pm 20:53 Clear 26 -3.3 16 -8.9 66 66 SW 12 19 30.14 1021 10 16 0.00 0.00
9:53 pm 21:53 Clear 28 -2.2 18 -7.8 66 66 SW 10 17 30.14 1021 10 16 0.00 0.00
10:53 pm 22:53 Clear 28 -2.2 17 -8.3 63 63 SW 12 19 30.14 1021 10 16 0.00 0.00
11:53 pm 23:53 Clear 25 -3.9 17 -8.3 72 72 SSW 9 15 30.14 1021 10 16 0.00 0.00

Powered by AerisWeather